Location: Copeville
(33.0796°N, 96.4155°W)
Time: 01:14:46
(UTC+00:00)

Oscar 11 - Pass Details

Date: 02 April 2023
Orbit: 609 x 619 km, 97.7° (Epoch: 07 June)

Event Time Altitude Azimuth Distance (km) Brightness Sun altitude
Rises 11:13:30 0° 3° (N) 2,877 10.7 -13.0°
Reaches altitude 10° 11:15:46 10° 356° (N) 1,970 9.8 -12.5°
Maximum altitude 11:19:47 41° 286° (WNW) 892 7.5 -11.7°
Drops below altitude 10° 11:23:48 10° 216° (SW) 1,963 9.2 -10.9°
Enters shadow 11:24:48 - 212° (SSW) 2,354 9.6 -10.7°
